TimeEDT,TemperatureF,Dew PointF,Humidity,Sea Level PressureIn,VisibilityMPH,Wind Direction,Wind SpeedMPH,Gust SpeedMPH,PrecipitationIn,Events,Conditions,WindDirDegrees,DateUTC
2:15 AM,63.5,62.6,97,29.78,10.0,Calm,Calm,-,N/A,,Overcast,0,2012-10-19 06:15:00
2:35 AM,64.4,62.8,94,29.77,10.0,Calm,Calm,-,N/A,,Overcast,0,2012-10-19 06:35:00
2:55 AM,64.4,63.0,95,29.76,10.0,ESE,3.5,-,N/A,,Overcast,120,2012-10-19 06:55:00
3:15 AM,64.2,63.5,98,29.76,10.0,Calm,Calm,-,N/A,,Overcast,0,2012-10-19 07:15:00
3:35 AM,64.0,63.9,99,29.75,10.0,Calm,Calm,-,N/A,,Overcast,0,2012-10-19 07:35:00
3:55 AM,63.5,63.5,100,29.75,10.0,Calm,Calm,-,N/A,,Overcast,0,2012-10-19 07:55:00
4:15 AM,63.7,63.7,100,29.75,10.0,Calm,Calm,-,N/A,,Overcast,0,2012-10-19 08:15:00
4:55 AM,64.4,64.4,100,29.75,10.0,Calm,Calm,-,N/A,,Overcast,0,2012-10-19 08:55:00
5:15 AM,64.6,64.6,100,29.74,10.0,Calm,Calm,-,N/A,,Overcast,0,2012-10-19 09:15:00
5:55 AM,64.9,64.9,100,29.74,10.0,Calm,Calm,-,N/A,,Overcast,0,2012-10-19 09:55:00
6:15 AM,65.3,65.3,100,29.75,10.0,SE,3.5,-,N/A,,Overcast,130,2012-10-19 10:15:00
6:35 AM,65.3,65.3,100,29.75,7.0,SE,3.5,-,N/A,,Overcast,140,2012-10-19 10:35:00
6:55 AM,65.3,65.3,100,29.77,5.0,South,3.5,-,N/A,,Light Drizzle,190,2012-10-19 10:55:00
7:15 AM,65.3,65.3,100,29.77,4.0,Calm,Calm,-,N/A,Rain,Light Rain,0,2012-10-19 11:15:00
7:35 AM,65.3,65.3,100,29.77,2.0,Calm,Calm,-,N/A,,Drizzle,0,2012-10-19 11:35:00
7:55 AM,65.3,65.3,100,29.77,2.5,SE,3.5,-,N/A,Rain,Light Rain,140,2012-10-19 11:55:00
8:15 AM,65.3,65.3,100,29.77,2.0,SE,3.5,-,N/A,Rain,Rain,130,2012-10-19 12:15:00
8:35 AM,65.5,65.5,100,29.78,2.5,Calm,Calm,-,N/A,Rain,Light Rain,0,2012-10-19 12:35:00
8:55 AM,65.8,65.8,100,29.76,4.0,ESE,4.6,-,N/A,Rain,Light Rain,120,2012-10-19 12:55:00
9:15 AM,65.8,65.8,100,29.76,5.0,Calm,Calm,-,N/A,,Overcast,0,2012-10-19 13:15:00
9:35 AM,66.2,66.2,100,29.76,7.0,ESE,3.5,-,N/A,Rain,Light Rain,120,2012-10-19 13:35:00
9:55 AM,67.1,67.1,100,29.75,10.0,SE,3.5,-,N/A,,Overcast,130,2012-10-19 13:55:00
10:15 AM,68.9,68.0,97,29.75,10.0,Calm,Calm,-,N/A,,Mostly Cloudy,0,2012-10-19 14:15:00
10:35 AM,70.7,68.5,93,29.75,10.0,SE,4.6,-,N/A,,Scattered Clouds,140,2012-10-19 14:35:00
10:55 AM,70.5,67.5,90,29.75,10.0,SSE,4.6,-,N/A,,Scattered Clouds,160,2012-10-19 14:55:00
11:15 AM,71.8,66.4,83,29.75,10.0,SSE,4.6,-,N/A,,Mostly Cloudy,160,2012-10-19 15:15:00
11:55 AM,72.1,67.5,85,29.75,10.0,SSE,5.8,-,N/A,,Overcast,160,2012-10-19 15:55:00
12:15 PM,72.9,67.1,82,29.74,10.0,South,6.9,-,N/A,,Overcast,190,2012-10-19 16:15:00
12:35 PM,73.9,66.4,77,29.73,10.0,South,9.2,-,N/A,,Overcast,170,2012-10-19 16:35:00
12:55 PM,74.1,66.4,77,29.73,10.0,SSE,6.9,-,N/A,,Overcast,160,2012-10-19 16:55:00
1:35 PM,74.5,65.3,73,29.70,10.0,SSE,8.1,-,N/A,,Mostly Cloudy,160,2012-10-19 17:35:00
1:55 PM,74.7,65.3,73,29.69,10.0,SE,10.4,-,N/A,,Overcast,140,2012-10-19 17:55:00
2:15 PM,76.6,65.1,67,29.68,10.0,SSE,10.4,17.3,N/A,,Mostly Cloudy,160,2012-10-19 18:15:00
2:35 PM,77.5,64.8,65,29.67,10.0,SSE,9.2,17.3,N/A,,Scattered Clouds,150,2012-10-19 18:35:00
3:15 PM,78.3,63.9,61,29.66,10.0,South,6.9,19.6,N/A,,Clear,170,2012-10-19 19:15:00
3:35 PM,78.1,64.2,62,29.65,10.0,SSE,9.2,-,N/A,,Clear,150,2012-10-19 19:35:00
3:55 PM,78.4,62.4,58,29.65,10.0,South,12.7,-,N/A,,Scattered Clouds,190,2012-10-19 19:55:00
4:15 PM,77.7,63.5,61,29.65,10.0,South,9.2,-,N/A,,Scattered Clouds,170,2012-10-19 20:15:00
5:15 PM,76.1,62.4,62,29.64,10.0,SSE,6.9,-,N/A,,Clear,150,2012-10-19 21:15:00
5:35 PM,74.5,63.9,69,29.64,10.0,SE,4.6,-,N/A,,Clear,130,2012-10-19 21:35:00
5:55 PM,72.7,64.8,76,29.63,10.0,SE,3.5,-,N/A,,Clear,140,2012-10-19 21:55:00
6:15 PM,71.6,64.6,78,29.63,10.0,SE,4.6,-,N/A,,Clear,140,2012-10-19 22:15:00
6:55 PM,69.8,64.0,82,29.64,10.0,SE,4.6,-,N/A,,Scattered Clouds,140,2012-10-19 22:55:00
7:15 PM,68.9,63.9,84,29.65,10.0,SE,3.5,-,N/A,,Scattered Clouds,140,2012-10-19 23:15:00
7:55 PM,68.0,63.9,87,29.66,10.0,SSE,4.6,-,N/A,,Mostly Cloudy,150,2012-10-19 23:55:00
8:15 PM,66.7,63.5,89,29.66,10.0,South,4.6,-,N/A,,Scattered Clouds,180,2012-10-20 00:15:00
8:55 PM,65.7,61.9,88,29.68,10.0,South,3.5,-,N/A,,Clear,170,2012-10-20 00:55:00
9:15 PM,65.3,60.1,83,29.68,10.0,SSW,4.6,-,N/A,,Clear,200,2012-10-20 01:15:00
9:35 PM,65.7,56.1,71,29.69,10.0,SSW,6.9,-,N/A,,Clear,200,2012-10-20 01:35:00
10:15 PM,64.4,52.2,64,29.70,10.0,SSW,4.6,-,N/A,,Clear,200,2012-10-20 02:15:00
10:35 PM,63.1,50.9,64,29.71,10.0,South,4.6,-,N/A,,Clear,190,2012-10-20 02:35:00
10:55 PM,62.8,49.8,63,29.71,10.0,SSW,4.6,-,N/A,,Clear,210,2012-10-20 02:55:00
11:15 PM,61.7,48.6,62,29.72,10.0,SSW,4.6,-,N/A,,Clear,200,2012-10-20 03:15:00
11:35 PM,60.1,48.2,65,29.72,10.0,South,3.5,-,N/A,,Clear,180,2012-10-20 03:35:00
11:55 PM,57.7,48.6,71,29.72,10.0,South,3.5,-,N/A,,Clear,180,2012-10-20 03:55:00